Location: Avully
(45.9633°N, 6.0228°E)
Time: 20:35:33
(UTC+00:00)

Cosmos 2360 Rocket - Pass Details

Date: 10 August 2024
Orbit: 834 x 843 km, 71.0° (Epoch: 10 September)

Event Time Altitude Azimuth Distance (km) Brightness Sun altitude
Exits shadow 01:11:03 48° 268° (W) 1,095 2.5 -25.3°
Maximum altitude 01:11:58 53° 301° (WNW) 1,030 2.6 -25.3°
Drops below altitude 10° 01:17:31 10° 19° (NNE) 2,469 5.7 -24.8°
Sets 01:20:02 0° 24° (NNE) 3,407 6.8 -24.7°
